Greensboro, NC

5:14 AM EDT on March 26, 2017 (GMT -0400)
Piedmont Triad International

Weather History for KGSO - November, 2011

Change the Weather History Date:

Wednesday, November 16, 2011

  Actual Average Record
Temperature  
Mean Temperature 61 °F 50 °F  
Max Temperature 67 °F 61 °F 81 °F (1958)
Min Temperature 54 °F 40 °F 16 °F (1933)
Degree Days  
Heating Degree Days 4 15  
Month to date heating degree days 207 202  
Since 1 July heating degree days 447 435  
Cooling Degree Days 0 0  
Month to date cooling degree days 4 0  
Year to date cooling degree days 1798 1480  
Growing Degree Days 10 (Base 50)    
Moisture  
Dew Point 61 °F    
Average Humidity 83    
Maximum Humidity 93    
Minimum Humidity 73    
Precipitation  
Precipitation 2.18 in 0.10 in 2.20 in (1926)
Month to date precipitation 4.25 1.67  
Year to date precipitation 38.00 37.78  
Snow  
Snow 0.00 in 0.00 in T in (1972)
Month to date snowfall 0.0 0.0  
Since 1 July snowfall 0.0 0.0  
Since 1 September snowfall 0.0 0.0  
Snow Depth 0.00 in    
Sea Level Pressure  
Sea Level Pressure 29.82 in    
Wind  
Wind Speed 9 mph (SW)    
Max Wind Speed 23 mph    
Max Gust Speed 29 mph    
Visibility 5 miles    
Events Rain , Thunderstorm    
T = Trace of Precipitation, MM = Missing Value Source: NWS Daily Summary

Daily Weather History Graph

Daily Weather History Graph

Search for Another Location

Airport or City:

Trip Planner

Search our weather history database for the weather conditions in past years. The results will help you decide how hot, cold, wet, or windy it might be!

Date:

Astronomy

Nov. 16, 2011 Rise Set
Actual Time 6:57 AM EST 5:11 PM EST
Civil Twilight 6:29 AM EST 5:38 PM EST
Nautical Twilight 5:58 AM EST 6:09 PM EST
Astronomical Twilight 5:28 AM EST 6:40 PM EST
Moon 10:21 PM EST (11/16) 11:33 AM EST (11/16)
Length of Visible Light 11h 09m
Length of Day
10h 14m
Waning Gibbous, 70% of the Moon is Illuminated
Nov 16
Waning Gibbous
Nov 18
Last Quarter
Nov 25
New
Dec 2
First Quarter
Dec 10
Full

Hourly Weather History & Observations

Time (EST) Temp. Dew Point Humidity Pressure Visibility Wind Dir Wind Speed Gust Speed Precip Events Conditions
12:54 AM 66.9 °F 57.0 °F 70% 29.92 in 10.0 mi SW 6.9 mph - N/A   Overcast
1:54 AM 66.0 °F 57.9 °F 75% 29.90 in 10.0 mi SW 4.6 mph - N/A   Overcast
2:54 AM 64.0 °F 59.0 °F 84% 29.89 in 10.0 mi WSW 5.8 mph - 0.00 in   Mostly Cloudy
3:54 AM 64.0 °F 59.0 °F 84% 29.87 in 10.0 mi Calm Calm - 0.00 in   Overcast
4:21 AM 64.4 °F 59.0 °F 83% 29.89 in 10.0 mi Calm Calm - 0.00 in Rain Light Rain
4:38 AM 62.6 °F 60.8 °F 94% 29.88 in 2.5 mi SSW 3.5 mph - 0.04 in Rain Heavy Rain
4:54 AM 63.0 °F 61.0 °F 93% 29.86 in 2.5 mi South 3.5 mph - 0.11 in Rain Rain
5:04 AM 62.6 °F 60.8 °F 94% 29.88 in 3.0 mi South 4.6 mph - 0.01 in Rain Light Rain
5:54 AM 63.0 °F 62.1 °F 97% 29.86 in 3.0 mi SW 3.5 mph - 0.02 in   Overcast
6:54 AM 64.9 °F 63.0 °F 93% 29.86 in 3.0 mi SSW 6.9 mph - N/A   Overcast
7:07 AM 64.4 °F 62.6 °F 94% 29.88 in 1.0 mi SSW 9.2 mph - N/A   Overcast
7:54 AM 66.0 °F 64.0 °F 93% 29.86 in 1.0 mi South 9.2 mph - N/A   Overcast
8:08 AM 66.2 °F 64.4 °F 94% 29.88 in 2.0 mi SSW 10.4 mph - N/A   Overcast
8:54 AM 66.0 °F 64.0 °F 93% 29.85 in 2.0 mi SSW 9.2 mph - 0.01 in Rain Rain
9:09 AM 66.2 °F 64.4 °F 94% 29.87 in 1.5 mi SSW 8.1 mph - 0.04 in Rain Light Rain
9:54 AM 66.0 °F 64.0 °F 93% 29.85 in 2.0 mi SW 10.4 mph - 0.14 in Rain Light Rain
10:07 AM 66.2 °F 64.4 °F 94% 29.87 in 1.5 mi SSW 11.5 mph - 0.02 in Rain Light Rain
10:17 AM 66.2 °F 64.4 °F 94% 29.87 in 2.0 mi SSW 10.4 mph - 0.04 in Rain Rain
10:54 AM 66.9 °F 64.0 °F 90% 29.84 in 2.0 mi SSW 9.2 mph - 0.08 in Rain Rain
11:17 AM 66.2 °F 64.4 °F 94% 29.84 in 1.5 mi SSW 9.2 mph - 0.08 in Rain Heavy Rain
11:36 AM 66.2 °F 64.4 °F 94% 29.83 in 2.0 mi SSW 10.4 mph - 0.13 in Rain Light Rain
11:54 AM 66.0 °F 64.0 °F 93% 29.80 in 1.0 mi SW 10.4 mph - 0.20 in Rain Heavy Rain
12:05 PM 66.2 °F 64.4 °F 94% 29.82 in 1.5 mi SW 10.4 mph - 0.04 in Rain Rain
12:13 PM 66.2 °F 64.4 °F 94% 29.82 in 2.0 mi SW 9.2 mph - 0.05 in Rain Light Rain
12:28 PM 66.2 °F 64.4 °F 94% 29.81 in 8.0 mi SW 10.4 mph - 0.05 in Rain Light Rain
12:54 PM 66.9 °F 64.0 °F 90% 29.78 in 6.0 mi SW 10.4 mph 18.4 mph 0.05 in Rain Light Rain
1:54 PM 66.9 °F 64.0 °F 90% 29.75 in 10.0 mi SSW 16.1 mph 23.0 mph 0.02 in Rain Light Rain
2:03 PM 66.2 °F 62.6 °F 88% 29.78 in 10.0 mi SW 13.8 mph 24.2 mph N/A   Mostly Cloudy
2:07 PM 66.2 °F 64.4 °F 94% 29.78 in 10.0 mi SW 12.7 mph - N/A   Mostly Cloudy
2:54 PM 66.9 °F 63.0 °F 87% 29.74 in 10.0 mi SSW 12.7 mph - 0.00 in   Overcast
3:09 PM 66.2 °F 62.6 °F 88% 29.76 in 1.8 mi SSW 15.0 mph 20.7 mph 0.00 in Rain Heavy Rain
3:20 PM 66.2 °F 62.6 °F 88% 29.76 in 1.8 mi SW 11.5 mph 21.9 mph 0.10 in Rain Light Rain
3:22 PM 66.2 °F 62.6 °F 88% 29.76 in 2.5 mi SW 13.8 mph 20.7 mph 0.10 in Rain Light Rain
3:27 PM 66.2 °F 62.6 °F 88% 29.76 in 3.0 mi SW 15.0 mph 20.7 mph 0.11 in Rain Light Rain
3:54 PM 66.0 °F 63.0 °F 90% 29.74 in 10.0 mi SW 15.0 mph - 0.11 in   Mostly Cloudy
4:54 PM 66.9 °F 64.0 °F 90% 29.72 in 7.0 mi SSW 9.2 mph - N/A   Mostly Cloudy
5:54 PM 66.9 °F 64.0 °F 90% 29.72 in 3.0 mi South 10.4 mph - 0.04 in Rain Rain
6:42 PM 66.2 °F 64.4 °F 94% 29.75 in 2.0 mi SSW 15.0 mph 28.8 mph 0.18 in Rain Heavy Rain
6:54 PM 66.9 °F 64.0 °F 90% 29.73 in 7.0 mi SSW 15.0 mph 23.0 mph 0.19 in Rain Light Rain
7:54 PM 66.9 °F 64.0 °F 90% 29.74 in 10.0 mi WSW 8.1 mph - 0.00 in Rain Light Rain
8:22 PM 66.2 °F 64.4 °F 94% 29.76 in 4.0 mi Calm Calm - 0.02 in Rain Light Rain
8:43 PM 64.4 °F 62.6 °F 94% 29.77 in 5.0 mi North 13.8 mph 21.9 mph 0.03 in Rain Rain
8:54 PM 59.0 °F 57.0 °F 93% 29.75 in 1.5 mi North 12.7 mph 23.0 mph 0.11 in Rain Heavy Rain
9:03 PM 59.0 °F 57.2 °F 94% 29.79 in 1.2 mi NE 10.4 mph 16.1 mph 0.18 in Rain Heavy Rain
9:10 PM 57.2 °F 55.4 °F 94% 29.81 in 1.0 mi North 9.2 mph 18.4 mph 0.36 in Rain , Thunderstorm Heavy Thunderstorms and Rain
9:12 PM 57.2 °F 55.4 °F 94% 29.81 in 0.8 mi NNE 11.5 mph 18.4 mph 0.42 in Rain , Thunderstorm Heavy Thunderstorms and Rain
9:26 PM 55.4 °F 53.6 °F 94% 29.81 in 1.0 mi NE 11.5 mph 24.2 mph 0.97 in Rain , Thunderstorm Heavy Thunderstorms and Rain
9:35 PM 53.6 °F 51.8 °F 94% 29.83 in 4.0 mi NNE 5.8 mph 24.2 mph 1.03 in Rain , Thunderstorm Thunderstorms and Rain
9:54 PM 55.0 °F 52.0 °F 89% 29.82 in 10.0 mi NNE 4.6 mph - 1.04 in Rain , Thunderstorm Light Thunderstorms and Rain
10:10 PM 55.4 °F 51.8 °F 88% 29.83 in 10.0 mi NNE 5.8 mph - 0.00 in Thunderstorm Thunderstorm
10:49 PM 55.4 °F 51.8 °F 88% 29.84 in 6.0 mi NNE 6.9 mph - 0.03 in Rain Rain
10:54 PM 55.0 °F 52.0 °F 89% 29.83 in 7.0 mi NNE 5.8 mph - 0.04 in Rain Light Rain
11:54 PM 55.0 °F 50.0 °F 83% 29.83 in 7.0 mi North 6.9 mph - 0.02 in Rain Light Rain